Location: Arbon
(43.0005°N, 0.7472°E)
Time: 12:08:42
(UTC+00:00)

Helios 1A Rocket - Pass Details

Date: 22 April 2026
Orbit: 405 x 416 km, 98.3° (Epoch: 16 May)

Event Time Altitude Azimuth Distance (km) Brightness Sun altitude
Rises 19:25:34 0° 22° (NNE) 2,382 6.1 -7.3°
Reaches altitude 10° 19:27:43 10° 32° (NNE) 1,508 5.0 -7.7°
Maximum altitude 19:30:40 33° 99° (E) 720 2.9 -8.1°
Drops below altitude 10° 19:33:35 10° 166° (SSE) 1,484 4.7 -8.6°
Sets 19:35:40 0° 176° (S) 2,337 5.7 -9.0°
